User: anonymous   Login
Location: Nairn
(57.5833°N, 3.8667°W)
Time: 07:17:35
(UTC+00:00)
Language:

Cosmos 968 Rocket - Orbit

View from above orbital plane
View from above orbital plane
View from above satellite
View from above satellite

Ground track
Ground track

The orbit data is extracted from the following two-line orbital elements,

1 10521U 77119B   20293.95120466 +.00000073 +00000-0 +31024-4 0  9997
2 10521 074.0279 167.5170 0022056 243.6284 116.2607 14.40795721248064
Epoch (UTC): 19 October 2020 22:49:44
Eccentricity: 0.0022056
inclination: 74.0279°
perigee height: 740 km
apogee height: 771 km
right ascension of ascending node: 167.5170°
argument of perigee: 243.6284°
revolutions per day: 14.40795721
mean anomaly at epoch: 116.2607°
orbit number at epoch: 24806

The dashed part of the orbit path shows where the satellite is in the earth's shadow,  

DLR